Location: Poughquag
(41.6090°N, 73.6820°W)
Time: 12:07:47
(UTC-05:00)

SR - Pass Details

Date: 11 December 2023
Orbit: 574 x 867 km, 66.7° (Epoch: 29 February)

Event Time Altitude Azimuth Distance (km) Brightness Sun altitude
Rises 09:55:40 0° 215° (SW) 3,255 ? 20.3°
Reaches altitude 10° 09:58:01 10° 218° (SW) 2,370 ? 20.6°
Maximum altitude 10:03:30 71° 302° (WNW) 887 ? 21.0°
Drops below altitude 10° 10:09:20 10° 26° (NNE) 2,507 ? 21.5°
Sets 10:11:53 0° 29° (NNE) 3,458 ? 21.7°
